DELTA 1 R/B(2), 1318

Orbit data source: Space-Track

DELTA 1 R/B(2), 1318 is space debris in HEO originally from a launch on Tue, 06 Apr 1965 UTC launched from the Air Force Eastern Test Range (AFETR). Debris objects in space refer to the collection of defunct objects orbiting the Earth. Examples of debris include non-operational satellites, rocket bodies, and fragments generated from explosions, collisions, or faulty payload assembly.

Loading next visibility...
Identifier
1318, 1965-028B
Orbit
HEO
Country
Flag of USUS
Related business
Manufacturer
ABL
Mission
Spacecraft
Bus & Motor
ALTAIR, Unknown motor
Mass
33 kg wet, 33 kg dry
Launch date (UTC)
1965-04-06 (60 years ago)
Launch vehicle
Unknown
Launch site
Air Force Eastern Test Range (AFETR)
Object type
Payload
Rocket body
Debris
Shape & HBR
Cyl, 0.8 m
Radar Cross Section
0.687 m², Medium (>0.1 m² and < 1m²)

Expand to show TLE details & history
Last TLE update: 1 week ago

TLE from 1 week ago
0 DELTA 1 R/B(2)
1 01318U 65028B   25252.46200582 -.00000185  00000-0  00000-0 0  9992
2 01318  18.1133 342.7316 6943714   8.4862 317.7421  2.11819049101372
Epoch: 2025-09-09T11:05Z
TLE epoch observation values (Epoch: 2025-09-09T11:05:17.302Z)
Latitude
-15.74649°
Longitude
67.1011°
Altitude
16,654.934 km
Speed
4.364 km/s
True Right ascension
14h 48m 42s
True Declination
-15° 43' 07"
Sunlit
Object was in daylight at epoch
Visualization orbit readout
Latitude
Unknown
Longitude
Unknown
Altitude
Unknown
Speed
Unknown
Apparent Right ascension
Unknown
Apparent Declination
Unknown
Sunlit
N/A
Visualization observer readout
Local Sidereal Time
07:14:39
Azimuth
Unknown
Elevation
Unknown
Doppler factor
Unknown
Orbital elements
Apogee altitude
37,022.985 km
Perigee altitude
1,450.503 km
Semi-major axis
25,614.881 km
Eccentricity
0.69437
Inclination
18.1133°
RAAN
342.7316°
Arg. of periapsis
8.4862°
True anomaly
232.38333°
Mean anomaly
317.7421°
Eccentric anomaly
278.38258°
Mean motion
0.52943 °/min
Orbital period
679.98 mins
BSTAR
0
Loading maneuver chart data...
Computing Atmospheric mass density...
Loading historical data...
Loading historical data...
Loading historical data...
Loading historical data...
Loading historical data...
Loading historical data...
Loading historical data...
Other satellites on launch #28 in the year 1965 (1965-04-06 UTC)

Documentation

Showing up to 5 results
|